Time,TemperatureF,DewpointF,PressureIn,WindDirection,WindDirectionDegrees,WindSpeedMPH,WindSpeedGustMPH,Humidity,HourlyPrecipIn,Conditions,Clouds,dailyrainin,SoftwareType,DateUTC
2013-11-01 00:00:00,46.5,15.1,30.03,SE,130,2.0,5.0,28,0.00,CLR,,0.00,WeatherDisplay:10.37,2013-11-01 07:00:00,
2013-11-01 00:10:00,46.1,15.6,30.03,SE,130,2.0,5.0,29,0.00,CLR,,0.00,WeatherDisplay:10.37,2013-11-01 07:10:00,
2013-11-01 00:15:00,46.2,15.6,30.03,SE,131,3.0,9.0,29,0.00,CLR,,0.00,WeatherDisplay:10.37,2013-11-01 07:15:00,
2013-11-01 00:20:00,46.2,15.6,30.03,SE,132,2.0,6.0,29,0.00,CLR,,0.00,WeatherDisplay:10.37,2013-11-01 07:20:00,
2013-11-01 00:25:00,46.2,15.6,30.03,SE,132,2.0,8.0,29,0.00,CLR,,0.00,WeatherDisplay:10.37,2013-11-01 07:25:00,
2013-11-01 00:30:00,46.4,15.8,30.03,SE,132,3.0,6.0,29,0.00,CLR,,0.00,WeatherDisplay:10.37,2013-11-01 07:30:00,
2013-11-01 00:40:00,47.4,15.9,30.02,SE,132,2.0,6.0,28,0.00,CLR,,0.00,WeatherDisplay:10.37,2013-11-01 07:40:00,
2013-11-01 00:45:00,47.6,16.1,30.03,SE,132,2.0,5.0,28,0.00,CLR,,0.00,WeatherDisplay:10.37,2013-11-01 07:45:00,
2013-11-01 00:50:00,47.4,15.9,30.03,SE,132,2.0,5.0,28,0.00,CLR,,0.00,WeatherDisplay:10.37,2013-11-01 07:50:00,
2013-11-01 00:55:00,47.3,16.6,30.03,SE,132,1.0,5.0,29,0.00,CLR,,0.00,WeatherDisplay:10.37,2013-11-01 07:55:00,
2013-11-01 01:00:00,47.1,16.4,30.03,SE,132,2.0,5.0,29,0.00,CLR,,0.00,WeatherDisplay:10.37,2013-11-01 08:00:00,
2013-11-01 01:10:00,47.0,16.3,30.03,SE,132,2.0,6.0,29,0.00,CLR,,0.00,WeatherDisplay:10.37,2013-11-01 08:10:00,
2013-11-01 01:15:00,47.4,16.7,30.03,SE,132,2.0,6.0,29,0.00,CLR,,0.00,WeatherDisplay:10.37,2013-11-01 08:15:00,
2013-11-01 01:20:00,47.8,16.2,30.03,SE,132,2.0,5.0,28,0.00,CLR,,0.00,WeatherDisplay:10.37,2013-11-01 08:20:00,
2013-11-01 01:25:00,48.0,16.4,30.03,SE,132,1.0,5.0,28,0.00,CLR,,0.00,WeatherDisplay:10.37,2013-11-01 08:25:00,
2013-11-01 01:30:00,47.8,16.2,30.03,SE,132,1.0,5.0,28,0.00,CLR,,0.00,WeatherDisplay:10.37,2013-11-01 08:30:00,
2013-11-01 01:40:00,47.3,15.8,30.03,SE,132,3.0,6.0,28,0.00,CLR,,0.00,WeatherDisplay:10.37,2013-11-01 08:40:00,
2013-11-01 01:45:00,46.6,15.2,30.03,SE,132,3.0,6.0,28,0.00,CLR,,0.00,WeatherDisplay:10.37,2013-11-01 08:45:00,
2013-11-01 01:50:00,46.0,15.5,30.03,SE,132,3.0,7.0,29,0.00,CLR,,0.00,WeatherDisplay:10.37,2013-11-01 08:50:00,
2013-11-01 01:55:00,45.6,15.9,30.04,SE,133,3.0,7.0,30,0.00,CLR,,0.00,WeatherDisplay:10.37,2013-11-01 08:55:00,
2013-11-01 02:00:00,45.4,15.7,30.04,SE,133,2.0,6.0,30,0.00,CLR,,0.00,WeatherDisplay:10.37,2013-11-01 09:00:00,
2013-11-01 02:10:00,44.7,15.9,30.04,SE,133,1.0,3.0,31,0.00,CLR,,0.00,WeatherDisplay:10.37,2013-11-01 09:10:00,
2013-11-01 02:15:00,44.5,15.7,30.04,SE,133,1.0,4.0,31,0.00,CLR,,0.00,WeatherDisplay:10.37,2013-11-01 09:15:00,
2013-11-01 02:20:00,44.3,15.5,30.05,SE,133,1.0,5.0,31,0.00,CLR,,0.00,WeatherDisplay:10.37,2013-11-01 09:20:00,
2013-11-01 02:25:00,44.3,16.2,30.05,SE,133,2.0,4.0,32,0.00,CLR,,0.00,WeatherDisplay:10.37,2013-11-01 09:25:00,
2013-11-01 02:30:00,44.2,16.2,30.05,SE,133,2.0,5.0,32,0.00,CLR,,0.00,WeatherDisplay:10.37,2013-11-01 09:30:00,
2013-11-01 02:40:00,44.5,16.4,30.05,SE,133,1.0,5.0,32,0.00,CLR,,0.00,WeatherDisplay:10.37,2013-11-01 09:40:00,
2013-11-01 02:45:00,44.3,16.3,30.05,SE,133,0.0,2.0,32,0.00,CLR,,0.00,WeatherDisplay:10.37,2013-11-01 09:45:00,
2013-11-01 02:50:00,44.2,16.1,30.05,SE,133,0.0,2.0,32,0.00,CLR,,0.00,WeatherDisplay:10.37,2013-11-01 09:50:00,
2013-11-01 02:55:00,43.8,15.8,30.05,SE,133,2.0,4.0,32,0.00,CLR,,0.00,WeatherDisplay:10.37,2013-11-01 09:55:00,
2013-11-01 03:00:00,43.5,16.3,30.04,SE,133,2.0,5.0,33,0.00,CLR,,0.00,WeatherDisplay:10.37,2013-11-01 10:00:00,
2013-11-01 03:10:00,43.1,16.6,30.04,SE,133,0.0,1.0,34,0.00,CLR,,0.00,WeatherDisplay:10.37,2013-11-01 10:10:00,
2013-11-01 03:15:00,42.9,17.0,30.04,SE,133,0.0,0.0,35,0.00,CLR,,0.00,WeatherDisplay:10.37,2013-11-01 10:15:00,
2013-11-01 03:20:00,42.8,17.0,30.04,SE,133,0.0,1.0,35,0.00,CLR,,0.00,WeatherDisplay:10.37,2013-11-01 10:20:00,
2013-11-01 03:30:00,42.8,17.0,30.04,SE,133,0.0,5.0,35,0.00,CLR,,0.00,WeatherDisplay:10.37,2013-11-01 10:30:00,
2013-11-01 03:40:00,44.0,17.4,30.04,SE,133,2.0,7.0,34,0.00,CLR,,0.00,WeatherDisplay:10.37,2013-11-01 10:40:00,
2013-11-01 03:45:00,44.3,17.0,30.04,SE,133,2.0,4.0,33,0.00,CLR,,0.00,WeatherDisplay:10.37,2013-11-01 10:45:00,
2013-11-01 03:50:00,44.3,16.2,30.05,SE,133,0.0,3.0,32,0.00,CLR,,0.00,WeatherDisplay:10.37,2013-11-01 10:50:00,
2013-11-01 03:55:00,43.9,17.3,30.04,SE,133,0.0,2.0,34,0.00,CLR,,0.00,WeatherDisplay:10.37,2013-11-01 10:55:00,
2013-11-01 04:00:00,43.6,17.0,30.05,SE,133,0.0,2.0,34,0.00,CLR,,0.00,WeatherDisplay:10.37,2013-11-01 11:00:00,
2013-11-01 04:10:00,43.3,17.4,30.05,SE,133,1.0,5.0,35,0.00,CLR,,0.00,WeatherDisplay:10.37,2013-11-01 11:10:00,
2013-11-01 04:15:00,43.2,16.7,30.05,SE,133,3.0,7.0,34,0.00,CLR,,0.00,WeatherDisplay:10.37,2013-11-01 11:15:00,
2013-11-01 04:20:00,43.2,16.7,30.05,SE,133,5.0,9.0,34,0.00,CLR,,0.00,WeatherDisplay:10.37,2013-11-01 11:20:00,
2013-11-01 04:25:00,43.2,16.7,30.05,SE,133,3.0,6.0,34,0.00,CLR,,0.00,WeatherDisplay:10.37,2013-11-01 11:25:00,
2013-11-01 04:30:00,43.1,17.3,30.06,SE,133,2.0,5.0,35,0.00,CLR,,0.00,WeatherDisplay:10.37,2013-11-01 11:30:00,
2013-11-01 04:40:00,42.6,16.8,30.06,SE,133,1.0,4.0,35,0.00,CLR,,0.00,WeatherDisplay:10.37,2013-11-01 11:40:00,
2013-11-01 04:45:00,42.3,16.6,30.06,SE,133,2.0,4.0,35,0.00,CLR,,0.00,WeatherDisplay:10.37,2013-11-01 11:45:00,
2013-11-01 04:50:00,42.1,16.4,30.06,SE,133,1.0,4.0,35,0.00,CLR,,0.00,WeatherDisplay:10.37,2013-11-01 11:50:00,
2013-11-01 05:00:00,41.7,16.6,30.06,SE,133,2.0,4.0,36,0.00,CLR,,0.00,WeatherDisplay:10.37,2013-11-01 12:00:00,
2013-11-01 05:05:00,41.8,16.8,30.06,SE,133,5.0,8.0,36,0.00,CLR,,0.00,WeatherDisplay:10.37,2013-11-01 12:05:00,
2013-11-01 05:10:00,42.6,17.4,30.07,SE,137,3.0,8.0,36,0.00,CLR,,0.00,WeatherDisplay:10.37,2013-11-01 12:10:00,
2013-11-01 05:15:00,42.9,17.1,30.07,SE,141,2.0,9.0,35,0.00,CLR,,0.00,WeatherDisplay:10.37,2013-11-01 12:15:00,
2013-11-01 05:20:00,43.1,17.3,30.07,SE,143,3.0,6.0,35,0.00,CLR,,0.00,WeatherDisplay:10.37,2013-11-01 12:20:00,
2013-11-01 05:25:00,43.1,17.3,30.07,SE,143,3.0,7.0,35,0.00,CLR,,0.00,WeatherDisplay:10.37,2013-11-01 12:25:00,
2013-11-01 05:30:00,43.1,17.3,30.09,SE,144,3.0,8.0,35,0.00,CLR,,0.00,WeatherDisplay:10.37,2013-11-01 12:30:00,
2013-11-01 05:40:00,42.8,17.0,30.09,SSE,148,6.0,10.0,35,0.00,CLR,,0.00,WeatherDisplay:10.37,2013-11-01 12:40:00,
2013-11-01 05:50:00,42.3,17.2,30.09,SSE,152,1.0,5.0,36,0.00,CLR,,0.00,WeatherDisplay:10.37,2013-11-01 12:50:00,
2013-11-01 05:55:00,42.2,17.8,30.09,SSE,152,2.0,4.0,37,0.00,CLR,,0.00,WeatherDisplay:10.37,2013-11-01 12:55:00,
2013-11-01 06:00:00,42.2,17.8,30.09,SSE,152,3.0,5.0,37,0.00,CLR,,0.00,WeatherDisplay:10.37,2013-11-01 13:00:00,
2013-11-01 06:10:00,43.1,17.9,30.09,SSE,153,1.0,6.0,36,0.00,CLR,,0.00,WeatherDisplay:10.37,2013-11-01 13:10:00,
2013-11-01 06:15:00,43.3,18.1,30.09,SSE,153,3.0,7.0,36,0.00,CLR,,0.00,WeatherDisplay:10.37,2013-11-01 13:15:00,
2013-11-01 06:20:00,43.3,18.1,30.10,SSE,153,3.0,6.0,36,0.00,CLR,,0.00,WeatherDisplay:10.37,2013-11-01 13:20:00,
2013-11-01 06:30:00,42.7,17.5,30.11,SSE,153,2.0,7.0,36,0.00,CLR,,0.00,WeatherDisplay:10.37,2013-11-01 13:30:00,
2013-11-01 06:40:00,42.8,18.9,30.11,SSE,153,3.0,5.0,38,0.00,CLR,,0.00,WeatherDisplay:10.37,2013-11-01 13:40:00,
2013-11-01 06:45:00,43.2,18.6,30.12,SSE,153,3.0,6.0,37,0.00,CLR,,0.00,WeatherDisplay:10.37,2013-11-01 13:45:00,
2013-11-01 06:50:00,43.3,18.1,30.12,SSE,153,5.0,7.0,36,0.00,CLR,,0.00,WeatherDisplay:10.37,2013-11-01 13:50:00,
2013-11-01 06:55:00,43.3,18.1,30.12,SSE,153,3.0,6.0,36,0.00,CLR,,0.00,WeatherDisplay:10.37,2013-11-01 13:55:00,
2013-11-01 07:00:00,43.1,17.9,30.12,SSE,153,3.0,7.0,36,0.00,CLR,,0.00,WeatherDisplay:10.37,2013-11-01 14:00:00,
2013-11-01 07:10:00,42.6,18.1,30.12,SSE,153,2.0,5.0,37,0.00,CLR,,0.00,WeatherDisplay:10.37,2013-11-01 14:10:00,
2013-11-01 07:15:00,42.5,18.0,30.12,SSE,153,2.0,5.0,37,0.00,CLR,,0.00,WeatherDisplay:10.37,2013-11-01 14:15:00,
2013-11-01 07:20:00,42.2,17.8,30.13,SSE,153,2.0,5.0,37,0.00,CLR,,0.00,WeatherDisplay:10.37,2013-11-01 14:20:00,
2013-11-01 07:25:00,42.2,18.4,30.13,SSE,153,2.0,5.0,38,0.00,CLR,,0.00,WeatherDisplay:10.37,2013-11-01 14:25:00,
2013-11-01 07:30:00,42.3,17.8,30.14,SSE,153,1.0,4.0,37,0.00,CLR,,0.00,WeatherDisplay:10.37,2013-11-01 14:30:00,
2013-11-01 07:35:00,42.7,18.2,30.14,SSE,153,1.0,3.0,37,0.00,CLR,,0.00,WeatherDisplay:10.37,2013-11-01 14:35:00,
2013-11-01 07:45:00,43.1,17.9,30.14,SSE,153,0.0,0.0,36,0.00,CLR,,0.00,WeatherDisplay:10.37,2013-11-01 14:45:00,
2013-11-01 07:50:00,42.9,17.7,30.14,SSE,153,0.0,2.0,36,0.00,CLR,,0.00,WeatherDisplay:10.37,2013-11-01 14:50:00,
2013-11-01 07:55:00,42.6,18.1,30.15,SSE,153,0.0,0.0,37,0.00,CLR,,0.00,WeatherDisplay:10.37,2013-11-01 14:55:00,
2013-11-01 08:00:00,42.8,18.3,30.15,SSE,153,0.0,0.0,37,0.00,CLR,,0.00,WeatherDisplay:10.37,2013-11-01 15:00:00,
2013-11-01 08:10:00,43.8,18.6,30.15,SSE,153,0.0,0.0,36,0.00,CLR,,0.00,WeatherDisplay:10.37,2013-11-01 15:10:00,
2013-11-01 08:15:00,44.3,18.3,30.15,SSE,153,0.0,0.0,35,0.00,CLR,,0.00,WeatherDisplay:10.37,2013-11-01 15:15:00,
2013-11-01 08:20:00,44.8,18.8,30.15,SSE,153,0.0,0.0,35,0.00,CLR,,0.00,WeatherDisplay:10.37,2013-11-01 15:20:00,
2013-11-01 08:30:00,46.1,18.6,30.15,SSE,153,0.0,0.0,33,0.00,CLR,,0.00,WeatherDisplay:10.37,2013-11-01 15:30:00,
2013-11-01 08:40:00,48.1,18.9,30.15,SSE,153,0.0,0.0,31,0.00,CLR,,0.00,WeatherDisplay:10.37,2013-11-01 15:40:00,
2013-11-01 08:45:00,49.0,18.9,30.14,SSE,153,0.0,0.0,30,0.00,CLR,,0.00,WeatherDisplay:10.37,2013-11-01 15:45:00,
2013-11-01 08:50:00,49.6,18.6,30.14,SSE,153,0.0,0.0,29,0.00,CLR,,0.00,WeatherDisplay:10.37,2013-11-01 15:50:00,
2013-11-01 08:55:00,50.4,18.5,30.15,SSE,153,0.0,0.0,28,0.00,CLR,,0.00,WeatherDisplay:10.37,2013-11-01 15:55:00,
2013-11-01 09:00:00,51.3,19.2,30.14,SSE,153,0.0,0.0,28,0.00,CLR,,0.00,WeatherDisplay:10.37,2013-11-01 16:00:00,
2013-11-01 09:10:00,52.3,18.3,30.15,SSE,153,0.0,0.0,26,0.00,CLR,,0.00,WeatherDisplay:10.37,2013-11-01 16:10:00,
2013-11-01 09:15:00,52.7,18.8,30.14,SSE,153,0.0,0.0,26,0.00,CLR,,0.00,WeatherDisplay:10.37,2013-11-01 16:15:00,
2013-11-01 09:20:00,53.2,19.2,30.14,SSE,153,0.0,0.0,26,0.00,CLR,,0.00,WeatherDisplay:10.37,2013-11-01 16:20:00,
2013-11-01 09:25:00,53.8,18.7,30.14,SSE,153,0.0,4.0,25,0.00,CLR,,0.00,WeatherDisplay:10.37,2013-11-01 16:25:00,
2013-11-01 09:30:00,54.1,19.0,30.14,SSE,153,1.0,3.0,25,0.00,CLR,,0.00,WeatherDisplay:10.37,2013-11-01 16:30:00,
2013-11-01 09:40:00,55.0,18.8,30.14,SSE,153,0.0,0.0,24,0.00,CLR,,0.00,WeatherDisplay:10.37,2013-11-01 16:40:00,
2013-11-01 09:50:00,56.0,18.7,30.14,SSE,153,0.0,0.0,23,0.00,CLR,,0.00,WeatherDisplay:10.37,2013-11-01 16:50:00,
2013-11-01 09:55:00,56.4,19.0,30.14,SSE,153,0.0,0.0,23,0.00,CLR,,0.00,WeatherDisplay:10.37,2013-11-01 16:55:00,
2013-11-01 10:00:00,56.9,18.4,30.14,SSE,153,0.0,0.0,22,0.00,CLR,,0.00,WeatherDisplay:10.37,2013-11-01 17:00:00,
2013-11-01 10:10:00,57.9,19.2,30.13,SSE,153,0.0,0.0,22,0.00,CLR,,0.00,WeatherDisplay:10.37,2013-11-01 17:10:00,
2013-11-01 10:15:00,58.1,18.3,30.13,SSE,153,0.0,0.0,21,0.00,CLR,,0.00,WeatherDisplay:10.37,2013-11-01 17:15:00,
2013-11-01 10:20:00,58.6,18.7,30.13,SSE,153,0.0,0.0,21,0.00,CLR,,0.00,WeatherDisplay:10.37,2013-11-01 17:20:00,
2013-11-01 10:25:00,58.9,19.0,30.13,SSE,153,0.0,0.0,21,0.00,CLR,,0.00,WeatherDisplay:10.37,2013-11-01 17:25:00,
2013-11-01 10:30:00,59.2,19.2,30.13,SSE,153,0.0,0.0,21,0.00,CLR,,0.00,WeatherDisplay:10.37,2013-11-01 17:30:00,
2013-11-01 10:40:00,60.4,19.1,30.13,SSE,153,0.0,0.0,20,0.00,CLR,,0.00,WeatherDisplay:10.37,2013-11-01 17:40:00,
2013-11-01 10:45:00,60.7,19.3,30.13,SSE,153,2.0,4.0,20,0.00,CLR,,0.00,WeatherDisplay:10.37,2013-11-01 17:45:00,
2013-11-01 10:50:00,61.1,19.7,30.12,SSE,153,0.0,0.0,20,0.00,CLR,,0.00,WeatherDisplay:10.37,2013-11-01 17:50:00,
2013-11-01 10:55:00,61.5,18.8,30.12,SSE,153,0.0,0.0,19,0.00,CLR,,0.00,WeatherDisplay:10.37,2013-11-01 17:55:00,
2013-11-01 11:00:00,61.8,19.0,30.12,SSE,153,0.0,2.0,19,0.00,CLR,,0.00,WeatherDisplay:10.37,2013-11-01 18:00:00,
2013-11-01 11:05:00,62.1,19.3,30.12,SSE,153,0.0,4.0,19,0.00,CLR,,0.00,WeatherDisplay:10.37,2013-11-01 18:05:00,
2013-11-01 11:15:00,63.6,19.3,30.11,SSE,153,2.0,4.0,18,0.00,CLR,,0.00,WeatherDisplay:10.37,2013-11-01 18:15:00,
2013-11-01 11:20:00,64.2,19.8,30.11,SSE,153,2.0,4.0,18,0.00,CLR,,0.00,WeatherDisplay:10.37,2013-11-01 18:20:00,
2013-11-01 11:25:00,64.2,19.8,30.11,SSE,153,2.0,5.0,18,0.00,CLR,,0.00,WeatherDisplay:10.37,2013-11-01 18:25:00,
2013-11-01 11:30:00,64.2,19.8,30.12,SSE,153,2.0,5.0,18,0.00,CLR,,0.00,WeatherDisplay:10.37,2013-11-01 18:30:00,
2013-11-01 11:40:00,65.2,19.2,30.11,SSE,153,0.0,4.0,17,0.00,CLR,,0.00,WeatherDisplay:10.37,2013-11-01 18:40:00,
2013-11-01 11:45:00,65.6,19.6,30.11,SSE,153,1.0,5.0,17,0.00,CLR,,0.00,WeatherDisplay:10.37,2013-11-01 18:45:00,
2013-11-01 11:50:00,66.2,20.1,30.10,SSE,153,0.0,2.0,17,0.00,CLR,,0.00,WeatherDisplay:10.37,2013-11-01 18:50:00,
2013-11-01 11:55:00,66.8,19.1,30.10,SSE,153,2.0,4.0,16,0.00,CLR,,0.00,WeatherDisplay:10.37,2013-11-01 18:55:00,
2013-11-01 12:00:00,66.9,19.2,30.10,SSE,153,0.0,3.0,16,0.00,CLR,,0.00,WeatherDisplay:10.37,2013-11-01 19:00:00,
2013-11-01 12:10:00,68.1,20.2,30.09,SSE,153,0.0,3.0,16,0.00,CLR,,0.00,WeatherDisplay:10.37,2013-11-01 19:10:00,
2013-11-01 12:15:00,69.1,19.4,30.09,SSE,153,0.0,2.0,15,0.00,CLR,,0.00,WeatherDisplay:10.37,2013-11-01 19:15:00,
2013-11-01 12:20:00,69.5,19.7,30.08,SSE,153,0.0,4.0,15,0.00,CLR,,0.00,WeatherDisplay:10.37,2013-11-01 19:20:00,
2013-11-01 12:25:00,69.9,20.1,30.08,SSE,153,0.0,3.0,15,0.00,CLR,,0.00,WeatherDisplay:10.37,2013-11-01 19:25:00,
2013-11-01 12:30:00,70.7,20.7,30.07,SSE,153,0.0,4.0,15,0.00,CLR,,0.00,WeatherDisplay:10.37,2013-11-01 19:30:00,
2013-11-01 12:40:00,71.8,21.6,30.06,SSE,153,0.0,2.0,15,0.00,CLR,,0.00,WeatherDisplay:10.37,2013-11-01 19:40:00,
2013-11-01 12:45:00,72.1,21.8,30.06,SSE,153,2.0,4.0,15,0.00,CLR,,0.00,WeatherDisplay:10.37,2013-11-01 19:45:00,
2013-11-01 12:50:00,71.8,21.6,30.05,SSE,153,1.0,3.0,15,0.00,CLR,,0.00,WeatherDisplay:10.37,2013-11-01 19:50:00,
2013-11-01 12:55:00,72.0,21.8,30.05,SSE,151,3.0,6.0,15,0.00,CLR,,0.00,WeatherDisplay:10.37,2013-11-01 19:55:00,
2013-11-01 13:00:00,71.8,21.6,30.05,SSE,147,2.0,6.0,15,0.00,CLR,,0.00,WeatherDisplay:10.37,2013-11-01 20:00:00,
2013-11-01 13:10:00,72.3,22.0,30.03,SE,142,0.0,3.0,15,0.00,CLR,,0.00,WeatherDisplay:10.37,2013-11-01 20:10:00,
2013-11-01 13:15:00,72.3,22.0,30.03,SE,142,1.0,4.0,15,0.00,CLR,,0.00,WeatherDisplay:10.37,2013-11-01 20:15:00,
2013-11-01 13:20:00,71.9,23.2,30.03,SE,126,3.0,6.0,16,0.00,CLR,,0.00,WeatherDisplay:10.37,2013-11-01 20:20:00,
2013-11-01 13:30:00,71.6,23.0,30.03,ESE,108,3.0,5.0,16,0.00,CLR,,0.00,WeatherDisplay:10.37,2013-11-01 20:30:00,
2013-11-01 13:40:00,72.5,22.2,30.03,ESE,108,1.0,4.0,15,0.00,CLR,,0.00,WeatherDisplay:10.37,2013-11-01 20:40:00,
2013-11-01 13:45:00,73.0,24.1,30.03,ESE,108,2.0,5.0,16,0.00,CLR,,0.00,WeatherDisplay:10.37,2013-11-01 20:45:00,
2013-11-01 13:50:00,73.9,23.3,30.02,ESE,108,1.0,5.0,15,0.00,CLR,,0.00,WeatherDisplay:10.37,2013-11-01 20:50:00,
2013-11-01 13:55:00,74.7,23.9,30.02,ESE,108,1.0,3.0,15,0.00,CLR,,0.00,WeatherDisplay:10.37,2013-11-01 20:55:00,
2013-11-01 14:00:00,74.6,23.9,30.02,ESE,109,5.0,7.0,15,0.00,CLR,,0.00,WeatherDisplay:10.37,2013-11-01 21:00:00,
2013-11-01 14:10:00,73.8,23.2,30.01,ESE,108,1.0,5.0,15,0.00,CLR,,0.00,WeatherDisplay:10.37,2013-11-01 21:10:00,
2013-11-01 14:15:00,73.3,22.8,30.01,East,96,2.0,9.0,15,0.00,CLR,,0.00,WeatherDisplay:10.37,2013-11-01 21:15:00,
2013-11-01 14:20:00,72.7,23.9,30.01,East,89,2.0,7.0,16,0.00,CLR,,0.00,WeatherDisplay:10.37,2013-11-01 21:20:00,
2013-11-01 14:25:00,72.5,23.7,30.01,East,88,2.0,6.0,16,0.00,CLR,,0.00,WeatherDisplay:10.37,2013-11-01 21:25:00,
2013-11-01 14:30:00,72.0,23.3,30.01,East,81,6.0,10.0,16,0.00,CLR,,0.00,WeatherDisplay:10.37,2013-11-01 21:30:00,
2013-11-01 14:40:00,72.6,23.8,30.01,East,79,3.0,7.0,16,0.00,CLR,,0.00,WeatherDisplay:10.37,2013-11-01 21:40:00,
2013-11-01 14:45:00,73.0,24.1,30.00,East,79,2.0,7.0,16,0.00,CLR,,0.00,WeatherDisplay:10.37,2013-11-01 21:45:00,
2013-11-01 14:50:00,72.7,23.9,30.00,ENE,78,3.0,9.0,16,0.00,CLR,,0.00,WeatherDisplay:10.37,2013-11-01 21:50:00,
2013-11-01 15:00:00,73.0,24.1,29.99,ENE,78,2.0,5.0,16,0.00,CLR,,0.00,WeatherDisplay:10.37,2013-11-01 22:00:00,
2013-11-01 15:10:00,73.3,24.4,29.99,ENE,78,3.0,6.0,16,0.00,CLR,,0.00,WeatherDisplay:10.37,2013-11-01 22:10:00,
2013-11-01 15:15:00,73.7,24.7,29.99,ENE,78,2.0,5.0,16,0.00,CLR,,0.00,WeatherDisplay:10.37,2013-11-01 22:15:00,
2013-11-01 15:25:00,73.9,24.8,29.99,East,92,3.0,6.0,16,0.00,CLR,,0.00,WeatherDisplay:10.37,2013-11-01 22:25:00,
2013-11-01 15:35:00,73.7,24.7,29.99,East,93,1.0,6.0,16,0.00,CLR,,0.00,WeatherDisplay:10.37,2013-11-01 22:35:00,
2013-11-01 15:45:00,74.6,23.9,29.99,East,95,5.0,9.0,15,0.00,CLR,,0.00,WeatherDisplay:10.37,2013-11-01 22:45:00,
2013-11-01 15:50:00,74.4,23.7,29.99,East,96,2.0,6.0,15,0.00,CLR,,0.00,WeatherDisplay:10.37,2013-11-01 22:50:00,
2013-11-01 16:00:00,74.4,23.7,29.98,East,97,5.0,7.0,15,0.00,CLR,,0.00,WeatherDisplay:10.37,2013-11-01 23:00:00,
2013-11-01 16:10:00,73.7,24.7,29.98,East,96,2.0,7.0,16,0.00,CLR,,0.00,WeatherDisplay:10.37,2013-11-01 23:10:00,
2013-11-01 16:20:00,73.5,24.5,29.98,East,95,2.0,5.0,16,0.00,CLR,,0.00,WeatherDisplay:10.37,2013-11-01 23:20:00,
2013-11-01 16:25:00,73.5,24.5,29.98,East,95,2.0,6.0,16,0.00,CLR,,0.00,WeatherDisplay:10.37,2013-11-01 23:25:00,
2013-11-01 16:30:00,73.2,24.3,29.98,East,94,3.0,6.0,16,0.00,CLR,,0.00,WeatherDisplay:10.37,2013-11-01 23:30:00,
2013-11-01 16:40:00,73.3,24.4,29.97,East,94,1.0,3.0,16,0.00,CLR,,0.00,WeatherDisplay:10.37,2013-11-01 23:40:00,
2013-11-01 16:50:00,73.2,24.3,29.97,East,94,2.0,5.0,16,0.00,CLR,,0.00,WeatherDisplay:10.37,2013-11-01 23:50:00,
2013-11-01 16:55:00,73.0,24.1,29.97,East,94,3.0,5.0,16,0.00,CLR,,0.00,WeatherDisplay:10.37,2013-11-01 23:55:00,
2013-11-01 17:00:00,72.7,23.9,29.97,East,94,3.0,4.0,16,0.00,CLR,,0.00,WeatherDisplay:10.37,2013-11-02 00:00:00,
2013-11-01 17:10:00,72.1,24.8,29.97,East,94,3.0,5.0,17,0.00,CLR,,0.00,WeatherDisplay:10.37,2013-11-02 00:10:00,
2013-11-01 17:15:00,72.0,24.8,29.97,East,94,2.0,5.0,17,0.00,CLR,,0.00,WeatherDisplay:10.37,2013-11-02 00:15:00,
2013-11-01 17:25:00,71.8,24.6,29.97,East,94,2.0,4.0,17,0.00,CLR,,0.00,WeatherDisplay:10.37,2013-11-02 00:25:00,
2013-11-01 17:30:00,71.5,24.4,29.97,East,94,2.0,4.0,17,0.00,CLR,,0.00,WeatherDisplay:10.37,2013-11-02 00:30:00,
2013-11-01 17:40:00,70.9,23.9,29.97,East,94,2.0,3.0,17,0.00,CLR,,0.00,WeatherDisplay:10.37,2013-11-02 00:40:00,
2013-11-01 17:45:00,70.4,24.8,29.97,East,94,0.0,2.0,18,0.00,CLR,,0.00,WeatherDisplay:10.37,2013-11-02 00:45:00,
2013-11-01 17:50:00,69.9,24.4,29.97,East,94,0.0,1.0,18,0.00,CLR,,0.00,WeatherDisplay:10.37,2013-11-02 00:50:00,
2013-11-01 17:55:00,69.2,25.2,29.97,East,94,0.0,2.0,19,0.00,CLR,,0.00,WeatherDisplay:10.37,2013-11-02 00:55:00,
2013-11-01 18:00:00,68.5,25.8,29.97,East,94,0.0,0.0,20,0.00,CLR,,0.00,WeatherDisplay:10.37,2013-11-02 01:00:00,
2013-11-01 18:10:00,66.9,25.6,29.98,East,94,0.0,0.0,21,0.00,CLR,,0.00,WeatherDisplay:10.37,2013-11-02 01:10:00,
2013-11-01 18:15:00,66.0,26.1,29.98,East,94,0.0,0.0,22,0.00,CLR,,0.00,WeatherDisplay:10.37,2013-11-02 01:15:00,
2013-11-01 18:20:00,65.2,25.4,29.98,East,94,0.0,0.0,22,0.00,CLR,,0.00,WeatherDisplay:10.37,2013-11-02 01:20:00,
2013-11-01 18:25:00,64.4,24.7,29.98,East,94,0.0,0.0,22,0.00,CLR,,0.00,WeatherDisplay:10.37,2013-11-02 01:25:00,
2013-11-01 18:30:00,63.7,25.2,29.99,East,94,0.0,0.0,23,0.00,CLR,,0.00,WeatherDisplay:10.37,2013-11-02 01:30:00,
2013-11-01 18:40:00,61.0,26.8,30.00,East,94,0.0,0.0,27,0.00,CLR,,0.00,WeatherDisplay:10.37,2013-11-02 01:40:00,
2013-11-01 18:45:00,60.0,23.1,30.00,East,94,0.0,0.0,24,0.00,CLR,,0.00,WeatherDisplay:10.37,2013-11-02 01:45:00,
2013-11-01 18:50:00,59.3,22.5,30.00,East,94,0.0,0.0,24,0.00,CLR,,0.00,WeatherDisplay:10.37,2013-11-02 01:50:00,
2013-11-01 18:55:00,58.7,21.9,30.00,East,94,1.0,2.0,24,0.00,CLR,,0.00,WeatherDisplay:10.37,2013-11-02 01:55:00,
2013-11-01 19:00:00,58.3,21.6,30.00,East,94,1.0,3.0,24,0.00,CLR,,0.00,WeatherDisplay:10.37,2013-11-02 02:00:00,
2013-11-01 19:10:00,58.3,22.6,30.00,East,94,1.0,3.0,25,0.00,CLR,,0.00,WeatherDisplay:10.37,2013-11-02 02:10:00,
2013-11-01 19:15:00,58.0,21.4,30.01,East,94,2.0,3.0,24,0.00,CLR,,0.00,WeatherDisplay:10.37,2013-11-02 02:15:00,
2013-11-01 19:20:00,57.8,22.2,30.01,East,94,2.0,3.0,25,0.00,CLR,,0.00,WeatherDisplay:10.37,2013-11-02 02:20:00,
2013-11-01 19:25:00,58.0,22.3,30.01,East,94,1.0,3.0,25,0.00,CLR,,0.00,WeatherDisplay:10.37,2013-11-02 02:25:00,
2013-11-01 19:30:00,57.7,23.0,30.00,East,94,1.0,3.0,26,0.00,CLR,,0.00,WeatherDisplay:10.37,2013-11-02 02:30:00,
2013-11-01 19:40:00,57.2,22.6,30.01,East,94,0.0,0.0,26,0.00,CLR,,0.00,WeatherDisplay:10.37,2013-11-02 02:40:00,
2013-11-01 19:45:00,56.6,21.1,30.01,East,94,0.0,0.0,25,0.00,CLR,,0.00,WeatherDisplay:10.37,2013-11-02 02:45:00,
2013-11-01 19:50:00,55.6,20.3,30.01,East,94,0.0,0.0,25,0.00,CLR,,0.00,WeatherDisplay:10.37,2013-11-02 02:50:00,
2013-11-01 19:55:00,54.8,18.6,30.01,East,94,0.0,0.0,24,0.00,CLR,,0.00,WeatherDisplay:10.37,2013-11-02 02:55:00,
2013-11-01 20:00:00,54.4,21.1,30.01,East,94,0.0,0.0,27,0.00,CLR,,0.00,WeatherDisplay:10.37,2013-11-02 03:00:00,
2013-11-01 20:10:00,53.6,20.4,30.01,East,94,0.0,0.0,27,0.00,CLR,,0.00,WeatherDisplay:10.37,2013-11-02 03:10:00,
2013-11-01 20:15:00,53.3,19.2,30.02,East,94,0.0,0.0,26,0.00,CLR,,0.00,WeatherDisplay:10.37,2013-11-02 03:15:00,
2013-11-01 20:20:00,52.8,19.7,30.02,East,94,0.0,0.0,27,0.00,CLR,,0.00,WeatherDisplay:10.37,2013-11-02 03:20:00,
2013-11-01 20:25:00,52.5,20.3,30.01,East,94,0.0,0.0,28,0.00,CLR,,0.00,WeatherDisplay:10.37,2013-11-02 03:25:00,
2013-11-01 20:30:00,52.3,19.3,29.99,East,94,0.0,0.0,27,0.00,CLR,,0.00,WeatherDisplay:10.37,2013-11-02 03:30:00,
2013-11-01 20:40:00,51.7,19.6,30.00,East,94,1.0,4.0,28,0.00,CLR,,0.00,WeatherDisplay:10.37,2013-11-02 03:40:00,
2013-11-01 20:45:00,51.6,18.7,30.00,East,94,1.0,3.0,27,0.00,CLR,,0.00,WeatherDisplay:10.37,2013-11-02 03:45:00,
2013-11-01 20:50:00,51.4,19.3,30.00,East,94,0.0,2.0,28,0.00,CLR,,0.00,WeatherDisplay:10.37,2013-11-02 03:50:00,
2013-11-01 20:55:00,51.4,19.3,30.00,East,94,0.0,0.0,28,0.00,CLR,,0.00,WeatherDisplay:10.37,2013-11-02 03:55:00,
2013-11-01 21:00:00,51.6,19.5,30.00,East,94,1.0,4.0,28,0.00,CLR,,0.00,WeatherDisplay:10.37,2013-11-02 04:00:00,
2013-11-01 21:05:00,51.9,18.9,30.00,East,95,2.0,6.0,27,0.00,CLR,,0.00,WeatherDisplay:10.37,2013-11-02 04:05:00,
2013-11-01 21:10:00,52.0,19.0,30.00,East,96,0.0,1.0,27,0.00,CLR,,0.00,WeatherDisplay:10.37,2013-11-02 04:10:00,
2013-11-01 21:15:00,52.2,19.2,30.00,East,96,0.0,4.0,27,0.00,CLR,,0.00,WeatherDisplay:10.37,2013-11-02 04:15:00,
2013-11-01 21:20:00,52.2,19.1,30.00,East,96,1.0,3.0,27,0.00,CLR,,0.00,WeatherDisplay:10.37,2013-11-02 04:20:00,
2013-11-01 21:25:00,52.0,19.9,30.00,East,97,1.0,3.0,28,0.00,CLR,,0.00,WeatherDisplay:10.37,2013-11-02 04:25:00,
2013-11-01 21:30:00,52.2,19.2,29.99,East,97,2.0,6.0,27,0.00,CLR,,0.00,WeatherDisplay:10.37,2013-11-02 04:30:00,
2013-11-01 21:40:00,51.7,19.6,30.00,East,101,5.0,7.0,28,0.00,CLR,,0.00,WeatherDisplay:10.37,2013-11-02 04:40:00,
2013-11-01 21:45:00,51.6,19.5,30.00,ESE,106,5.0,9.0,28,0.00,CLR,,0.00,WeatherDisplay:10.37,2013-11-02 04:45:00,
2013-11-01 21:50:00,51.7,19.6,30.00,ESE,111,5.0,10.0,28,0.00,CLR,,0.00,WeatherDisplay:10.37,2013-11-02 04:50:00,
2013-11-01 21:55:00,51.7,19.6,30.00,ESE,116,2.0,7.0,28,0.00,CLR,,0.00,WeatherDisplay:10.37,2013-11-02 04:55:00,
2013-11-01 22:00:00,51.6,19.5,30.00,ESE,118,3.0,5.0,28,0.00,CLR,,0.00,WeatherDisplay:10.37,2013-11-02 05:00:00,
2013-11-01 22:05:00,51.6,19.5,30.00,ESE,118,2.0,6.0,28,0.00,CLR,,0.00,WeatherDisplay:10.37,2013-11-02 05:05:00,
2013-11-01 22:10:00,51.3,19.3,30.00,ESE,118,0.0,4.0,28,0.00,CLR,,0.00,WeatherDisplay:10.37,2013-11-02 05:10:00,
2013-11-01 22:20:00,50.5,19.4,30.00,ESE,118,3.0,4.0,29,0.00,CLR,,0.00,WeatherDisplay:10.37,2013-11-02 05:20:00,
2013-11-01 22:25:00,49.9,18.9,30.01,ESE,118,2.0,4.0,29,0.00,CLR,,0.00,WeatherDisplay:10.37,2013-11-02 05:25:00,
2013-11-01 22:30:00,48.9,18.0,30.00,ESE,118,0.0,3.0,29,0.00,CLR,,0.00,WeatherDisplay:10.37,2013-11-02 05:30:00,
2013-11-01 22:40:00,49.4,20.0,30.00,ESE,119,3.0,7.0,31,0.00,CLR,,0.00,WeatherDisplay:10.37,2013-11-02 05:40:00,
2013-11-01 22:45:00,49.8,20.3,29.99,ESE,119,3.0,6.0,31,0.00,CLR,,0.00,WeatherDisplay:10.37,2013-11-02 05:45:00,
2013-11-01 22:50:00,49.9,20.4,29.99,ESE,120,3.0,5.0,31,0.00,CLR,,0.00,WeatherDisplay:10.37,2013-11-02 05:50:00,
2013-11-01 22:55:00,49.9,20.4,29.99,ESE,120,0.0,4.0,31,0.00,CLR,,0.00,WeatherDisplay:10.37,2013-11-02 05:55:00,
2013-11-01 23:00:00,49.5,20.1,29.99,ESE,120,0.0,0.0,31,0.00,CLR,,0.00,WeatherDisplay:10.37,2013-11-02 06:00:00,
2013-11-01 23:10:00,49.1,20.5,30.00,ESE,120,0.0,0.0,32,0.00,CLR,,0.00,WeatherDisplay:10.37,2013-11-02 06:10:00,
2013-11-01 23:20:00,48.7,20.1,29.99,ESE,120,0.0,0.0,32,0.00,CLR,,0.00,WeatherDisplay:10.37,2013-11-02 06:20:00,
2013-11-01 23:30:00,48.3,20.5,29.98,ESE,120,0.0,0.0,33,0.00,CLR,,0.00,WeatherDisplay:10.37,2013-11-02 06:30:00,
2013-11-01 23:40:00,48.0,20.2,29.98,ESE,120,1.0,4.0,33,0.00,CLR,,0.00,WeatherDisplay:10.37,2013-11-02 06:40:00,
2013-11-01 23:45:00,47.7,20.0,29.97,ESE,120,3.0,6.0,33,0.00,CLR,,0.00,WeatherDisplay:10.37,2013-11-02 06:45:00,
2013-11-01 23:50:00,47.6,20.6,29.97,ESE,120,3.0,6.0,34,0.00,CLR,,0.00,WeatherDisplay:10.37,2013-11-02 06:50:00,
2013-11-01 23:55:00,47.4,20.4,29.98,ESE,120,2.0,6.0,34,0.00,CLR,,0.00,WeatherDisplay:10.37,2013-11-02 06:55:00,